{"data":{"norad_id":67509,"epoch":"2026-09-19T09:40:03.177120Z","epoch_age_seconds":167045,"freshness":"FRESH","line1":"1 67509U 26012S   26262.40281455  .00009338  00000+0  34832-3 0  9990","line2":"2 67509  43.0014 300.7887 0001360 270.0649  90.0047 15.27589124 37387","mean_motion":15.27589124,"eccentricity":0.000136,"inclination_deg":43.0014,"raan_deg":300.7887,"arg_perigee_deg":270.0649,"mean_anomaly_deg":90.0047,"bstar":0.00034832,"rev_number":3738,"period_min":94.266185676247,"perigee_km":482.08865804381,"apogee_km":483.95489323078,"semimajor_km":6861.1587756373,"source":"CELESTRAK","updated_at":"2026-09-20T09:00:43.560891Z"}}